Arroyo Seco, NM

11:45 AM MST on February 07, 2016 (GMT -0700)
Taos Municipal

Weather History for KSKX - March, 2014

Change the Weather History Date:

Tuesday, March 4, 2014

  Actual Average (KE33) Record (KE33)
Temperature  
Mean Temperature 34 °F -  
Max Temperature 46 °F 40 °F - (-1)
Min Temperature 21 °F 19 °F - (-1)
Degree Days  
Heating Degree Days 32    
Moisture  
Dew Point 26 °F    
Average Humidity 70    
Maximum Humidity 93    
Minimum Humidity 37    
Precipitation  
Precipitation 0.01 in - - ()
Sea Level Pressure  
Sea Level Pressure 30.04 in    
Wind  
Wind Speed 4 mph (SSW)    
Max Wind Speed 14 mph    
Max Gust Speed 18 mph    
Visibility 10 miles    
Events      
Averages and records for this station are not official NWS values.
T = Trace of Precipitation, MM = Missing Value Source: NWS Daily Summary

Daily Weather History Graph

Daily Weather History Graph

Search for Another Location

Airport or City:

Trip Planner

Search our weather history database for the weather conditions in past years. The results will help you decide how hot, cold, wet, or windy it might be!

Date:

Astronomy

Mar. 04, 2014 Rise Set
Actual Time 6:29 AM MST 6:00 PM MST
Civil Twilight 6:03 AM MST 6:26 PM MST
Nautical Twilight 5:33 AM MST 6:55 PM MST
Astronomical Twilight 5:03 AM MST 7:25 PM MST
Moon 8:23 AM MST (3/4) 10:02 PM MST (3/4)
Length of Visible Light 12h 22m
Length of Day
11h 31m
Waxing Crescent, 15% of the Moon is Illuminated
Mar 4
Waxing Crescent
Mar 8
First Quarter
Mar 16
Full
Mar 23
Last Quarter
Mar 30
New

Hourly Weather History & Observations

Time (MST) Temp. Windchill Dew Point Humidity Pressure Visibility Wind Dir Wind Speed Gust Speed Precip Events Conditions
12:15 AM 28.4 °F 23.3 °F 24.8 °F 86% 30.14 in 10.0 mi NNE 4.6 mph - N/A   Clear
12:35 AM 28.4 °F - 24.8 °F 86% 30.14 in 10.0 mi Calm Calm - N/A   Clear
12:55 AM 28.4 °F - 24.8 °F 86% 30.14 in 10.0 mi Calm Calm - N/A   Clear
1:15 AM 28.4 °F 23.3 °F 23.0 °F 80% 30.14 in 10.0 mi ENE 4.6 mph - N/A   Clear
1:35 AM 28.4 °F 23.3 °F 24.8 °F 86% 30.13 in 10.0 mi East 4.6 mph - N/A   Clear
1:55 AM 26.6 °F - 21.2 °F 80% 30.13 in 10.0 mi Calm Calm - N/A   Clear
2:15 AM 26.6 °F 22.6 °F 23.0 °F 86% 30.12 in 10.0 mi NNE 3.5 mph - N/A   Clear
2:35 AM 26.6 °F - 21.2 °F 80% 30.11 in 10.0 mi Calm Calm - N/A   Clear
2:55 AM 24.8 °F - 21.2 °F 86% 30.10 in 10.0 mi Calm Calm - N/A   Clear
3:15 AM 23.0 °F 18.4 °F 19.4 °F 86% 30.10 in 10.0 mi NNW 3.5 mph - N/A   Clear
3:35 AM 23.0 °F 14.7 °F 19.4 °F 86% 30.11 in 10.0 mi North 6.9 mph - N/A   Clear
3:55 AM 24.8 °F 16.9 °F 21.2 °F 86% 30.11 in 10.0 mi NNE 6.9 mph - N/A   Clear
4:15 AM 24.8 °F 16.9 °F 21.2 °F 86% 30.11 in 10.0 mi NNE 6.9 mph - N/A   Clear
4:35 AM 26.6 °F - 21.2 °F 80% 30.11 in 10.0 mi Calm Calm - N/A   Clear
4:55 AM 24.8 °F 17.9 °F 21.2 °F 86% 30.11 in 10.0 mi East 5.8 mph - N/A   Clear
5:15 AM 24.8 °F 15.3 °F 21.2 °F 86% 30.10 in 10.0 mi ESE 9.2 mph - N/A   Clear
5:35 AM 24.8 °F - 21.2 °F 86% 30.10 in 10.0 mi Calm Calm - N/A   Clear
5:55 AM 24.8 °F - 19.4 °F 80% 30.11 in 10.0 mi Calm Calm - N/A   Clear
6:15 AM 21.2 °F 13.6 °F 17.6 °F 86% 30.10 in 10.0 mi North 5.8 mph - N/A   Clear
6:35 AM 23.0 °F 15.8 °F 19.4 °F 86% 30.11 in 10.0 mi North 5.8 mph - N/A   Clear
6:55 AM 23.0 °F 13.9 °F 19.4 °F 86% 30.11 in 10.0 mi NNE 8.1 mph - N/A   Clear
7:15 AM 24.8 °F 17.9 °F 21.2 °F 86% 30.11 in 10.0 mi NNE 5.8 mph - N/A   Clear
7:35 AM 26.6 °F 22.6 °F 24.8 °F 93% 30.12 in 10.0 mi NNE 3.5 mph - N/A   Clear
7:55 AM 30.2 °F - 24.8 °F 80% 30.12 in 10.0 mi Calm Calm - N/A   Clear
8:15 AM 30.2 °F - 26.6 °F 86% 30.12 in 10.0 mi Calm Calm - N/A   Clear
8:35 AM 32.0 °F 28.7 °F 26.6 °F 80% 30.11 in 10.0 mi ESE 3.5 mph - N/A   Clear
8:55 AM 35.6 °F 32.8 °F 26.6 °F 70% 30.11 in 10.0 mi SE 3.5 mph - N/A   Clear
9:15 AM 37.4 °F 34.9 °F 26.6 °F 65% 30.10 in 10.0 mi SSE 3.5 mph - N/A   Clear
9:35 AM 39.2 °F 37.0 °F 26.6 °F 61% 30.10 in 10.0 mi South 3.5 mph - N/A   Clear
9:55 AM 41.0 °F 38.0 °F 26.6 °F 57% 30.08 in 10.0 mi SE 4.6 mph - N/A   Clear
10:15 AM 42.8 °F - 26.6 °F 53% 30.07 in 10.0 mi Calm Calm - N/A   Clear
10:35 AM 44.6 °F 41.4 °F 26.6 °F 49% 30.06 in 10.0 mi SSE 5.8 mph - N/A   Clear
10:55 AM 44.6 °F - 24.8 °F 46% 30.06 in 10.0 mi Calm Calm - N/A   Clear
11:15 AM 44.6 °F 41.4 °F 24.8 °F 46% 30.05 in 10.0 mi West 5.8 mph - N/A   Clear
11:35 AM 44.6 °F 40.7 °F 26.6 °F 49% 30.05 in 10.0 mi West 6.9 mph - N/A   Clear
11:55 AM 44.6 °F 40.7 °F 26.6 °F 49% 30.03 in 10.0 mi West 6.9 mph - N/A   Clear
12:15 PM 46.4 °F 42.9 °F 28.4 °F 50% 30.02 in 10.0 mi SW 6.9 mph - N/A   Clear
12:35 PM 46.4 °F 42.9 °F 26.6 °F 46% 30.01 in 10.0 mi WSW 6.9 mph - N/A   Clear
12:55 PM 46.4 °F 41.9 °F 21.2 °F 37% 30.00 in 10.0 mi SW 9.2 mph - N/A   Clear
1:15 PM 46.4 °F 42.4 °F 26.6 °F 46% 29.99 in 10.0 mi WSW 8.1 mph - N/A   Clear
1:35 PM 46.4 °F 41.5 °F 24.8 °F 43% 29.98 in 10.0 mi SW 10.4 mph - N/A   Clear
1:55 PM 46.4 °F 41.5 °F 24.8 °F 43% 29.98 in 10.0 mi WSW 10.4 mph - N/A   Clear
2:15 PM 46.4 °F 41.1 °F 24.8 °F 43% 29.98 in 10.0 mi WSW 11.5 mph - N/A   Clear
2:35 PM 46.4 °F 41.1 °F 26.6 °F 46% 29.97 in 10.0 mi SW 11.5 mph - N/A   Clear
2:55 PM 46.4 °F 42.9 °F 26.6 °F 46% 29.96 in 10.0 mi SSW 6.9 mph - N/A   Clear
3:15 PM 46.4 °F 42.4 °F 26.6 °F 46% 29.96 in 10.0 mi South 8.1 mph - N/A   Mostly Cloudy
3:35 PM 46.4 °F 44.3 °F 26.6 °F 46% 29.96 in 10.0 mi South 4.6 mph - N/A   Overcast
3:55 PM 46.4 °F 42.9 °F 26.6 °F 46% 29.95 in 10.0 mi SSW 6.9 mph - N/A   Mostly Cloudy
4:15 PM 46.4 °F 42.9 °F 26.6 °F 46% 29.95 in 10.0 mi South 6.9 mph - N/A   Mostly Cloudy
4:35 PM 46.4 °F 43.5 °F 28.4 °F 50% 29.95 in 10.0 mi South 5.8 mph - N/A   Mostly Cloudy
4:55 PM 44.6 °F 42.2 °F 28.4 °F 53% 29.95 in 10.0 mi South 4.6 mph - N/A   Overcast
5:15 PM 44.6 °F 41.4 °F 28.4 °F 53% 29.95 in 10.0 mi SE 5.8 mph - N/A   Overcast
5:35 PM 44.6 °F 42.2 °F 30.2 °F 57% 29.94 in 10.0 mi SSE 4.6 mph - N/A   Overcast
5:55 PM 44.6 °F 38.4 °F 26.6 °F 49% 29.94 in 10.0 mi SW 12.7 mph 18.4 mph N/A   Overcast
6:15 PM 42.8 °F 37.5 °F 26.6 °F 53% 29.95 in 10.0 mi WSW 9.2 mph - N/A   Overcast
6:35 PM 41.0 °F 35.2 °F 28.4 °F 61% 29.97 in 10.0 mi West 9.2 mph - N/A   Overcast
6:55 PM 41.0 °F 34.7 °F 28.4 °F 61% 29.97 in 10.0 mi WSW 10.4 mph - N/A   Overcast
7:15 PM 39.2 °F 31.2 °F 28.4 °F 65% 29.97 in 10.0 mi WSW 13.8 mph - N/A   Overcast
7:35 PM 37.4 °F 30.8 °F 30.2 °F 75% 29.98 in 10.0 mi WSW 9.2 mph - N/A   Overcast
7:55 PM 37.4 °F 30.8 °F 30.2 °F 75% 29.97 in 10.0 mi SW 9.2 mph - N/A   Overcast
8:15 PM 37.4 °F - 30.2 °F 75% 29.97 in 10.0 mi Calm Calm - N/A   Overcast
8:35 PM 37.4 °F 33.8 °F 30.2 °F 75% 29.98 in 10.0 mi SSE 4.6 mph - N/A   Overcast
8:55 PM 37.4 °F 32.8 °F 32.0 °F 81% 29.98 in 10.0 mi ESE 5.8 mph - N/A   Overcast
9:15 PM 37.4 °F - 32.0 °F 81% 29.98 in 10.0 mi Calm Calm - N/A   Overcast
9:35 PM 35.6 °F - 30.2 °F 81% 29.98 in 10.0 mi Calm Calm - N/A   Mostly Cloudy
9:55 PM 35.6 °F - 32.0 °F 87% 29.99 in 10.0 mi Calm Calm - N/A   Overcast
10:15 PM 35.6 °F - 33.8 °F 93% 29.99 in 10.0 mi Calm Calm - N/A   Overcast
10:35 PM 35.6 °F - 33.8 °F 93% 29.99 in 10.0 mi Calm Calm - N/A   Overcast
10:55 PM 35.6 °F - 33.8 °F 93% 29.99 in 10.0 mi Calm Calm - N/A   Overcast
11:15 PM 35.6 °F - 33.8 °F 93% 29.99 in 10.0 mi Calm Calm - 0.01 in   Overcast
11:35 PM 35.6 °F - 33.8 °F 93% 29.99 in 10.0 mi Calm Calm - 0.01 in   Overcast
11:55 PM 33.8 °F 28.6 °F 32.0 °F 93% 29.99 in 10.0 mi NNW 5.8 mph - 0.01 in   Mostly Cloudy